TimeCDT,TemperatureF,Dew PointF,Humidity,Sea Level PressureIn,VisibilityMPH,Wind Direction,Wind SpeedMPH,Gust SpeedMPH,PrecipitationIn,Events,Conditions,WindDirDegrees,DateUTC
12:56 AM,59.0,55.0,87,29.60,10.0,NE,11.5,-,0.01,Rain,Light Rain,40,2013-10-11 05:56:00
1:56 AM,59.0,55.0,87,29.61,10.0,East,9.2,-,0.00,,Mostly Cloudy,100,2013-10-11 06:56:00
2:56 AM,60.1,55.0,83,29.62,10.0,ESE,8.1,-,N/A,,Scattered Clouds,120,2013-10-11 07:56:00
3:12 AM,60.8,55.4,82,29.62,7.0,SE,11.5,-,0.01,Rain-Thunderstorm,Light Rain,130,2013-10-11 08:12:00
3:27 AM,60.8,55.4,82,29.60,10.0,SE,16.1,21.9,0.01,Rain,Light Rain,130,2013-10-11 08:27:00
3:56 AM,61.0,55.0,81,29.58,10.0,SE,13.8,-,0.02,,Partly Cloudy,130,2013-10-11 08:56:00
4:56 AM,60.1,54.0,80,29.57,10.0,SE,13.8,-,N/A,,Partly Cloudy,130,2013-10-11 09:56:00
5:56 AM,60.1,53.1,78,29.56,10.0,ESE,13.8,21.9,N/A,,Clear,120,2013-10-11 10:56:00
6:56 AM,57.9,51.1,78,29.54,10.0,ESE,16.1,23.0,N/A,,Clear,120,2013-10-11 11:56:00
7:56 AM,57.0,51.1,81,29.52,10.0,ESE,15.0,23.0,N/A,,Partly Cloudy,110,2013-10-11 12:56:00
8:56 AM,57.0,51.1,81,29.54,10.0,SE,13.8,-,0.00,Rain,Light Rain,140,2013-10-11 13:56:00
9:56 AM,57.9,53.1,84,29.50,9.0,SE,15.0,-,0.01,Rain,Light Rain,130,2013-10-11 14:56:00
10:12 AM,57.2,53.6,88,29.51,10.0,SSE,15.0,20.7,0.00,Thunderstorm,Scattered Clouds,150,2013-10-11 15:12:00
10:23 AM,57.2,53.6,88,29.50,1.8,SE,11.5,25.3,0.07,Rain-Thunderstorm,Heavy Rain,130,2013-10-11 15:23:00
10:30 AM,57.2,53.6,88,29.49,2.5,SSE,10.4,-,0.07,Rain,Light Rain,150,2013-10-11 15:30:00
10:37 AM,57.2,53.6,88,29.49,10.0,SE,13.8,-,0.07,Rain,Light Rain,130,2013-10-11 15:37:00
10:48 AM,55.4,53.6,94,29.49,1.8,SE,15.0,21.9,0.15,Rain-Thunderstorm,Heavy Rain,130,2013-10-11 15:48:00
10:56 AM,55.9,54.0,93,29.50,1.5,SE,16.1,21.9,0.21,Rain-Thunderstorm,Thunderstorms and Rain,140,2013-10-11 15:56:00
11:09 AM,55.4,53.6,94,29.47,3.0,SE,13.8,18.4,0.04,Rain-Thunderstorm,Light Thunderstorms and Rain,130,2013-10-11 16:09:00
11:17 AM,55.4,53.6,94,29.48,1.5,ESE,15.0,26.5,0.17,Rain-Thunderstorm,Heavy Thunderstorms and Rain,120,2013-10-11 16:17:00
11:26 AM,55.4,53.6,94,29.47,1.0,ESE,17.3,25.3,0.21,Rain-Thunderstorm,Thunderstorms and Rain,120,2013-10-11 16:26:00
11:29 AM,55.4,53.6,94,29.47,3.0,ESE,15.0,25.3,0.21,Rain-Thunderstorm,Light Thunderstorms and Rain,120,2013-10-11 16:29:00
11:56 AM,57.9,55.0,90,29.45,10.0,SE,15.0,-,0.21,,Overcast,130,2013-10-11 16:56:00
12:28 PM,57.2,55.4,94,29.44,6.0,ESE,16.1,24.2,0.01,Rain-Thunderstorm,Light Rain,120,2013-10-11 17:28:00
12:56 PM,57.9,55.9,93,29.42,10.0,ESE,18.4,24.2,0.01,Thunderstorm,Overcast,110,2013-10-11 17:56:00
1:08 PM,57.2,55.4,94,29.41,10.0,ESE,13.8,-,N/A,,Overcast,120,2013-10-11 18:08:00
1:22 PM,57.2,55.4,94,29.40,10.0,ESE,16.1,23.0,N/A,,Overcast,110,2013-10-11 18:22:00
1:56 PM,60.1,55.9,86,29.37,10.0,ESE,18.4,24.2,N/A,,Overcast,120,2013-10-11 18:56:00
2:05 PM,60.8,55.4,82,29.37,10.0,ESE,17.3,24.2,N/A,,Overcast,110,2013-10-11 19:05:00
2:56 PM,60.1,55.9,86,29.33,10.0,ESE,19.6,28.8,N/A,,Overcast,110,2013-10-11 19:56:00
3:09 PM,60.8,55.4,82,29.32,10.0,ESE,19.6,27.6,N/A,,Overcast,110,2013-10-11 20:09:00
3:49 PM,60.8,55.4,82,29.31,5.0,East,15.0,23.0,0.01,Rain-Thunderstorm,Light Rain,100,2013-10-11 20:49:00
3:56 PM,57.9,55.0,90,29.36,4.0,SSW,29.9,36.8,0.02,Rain-Thunderstorm,Light Thunderstorms and Rain,200,2013-10-11 20:56:00
4:00 PM,53.6,50.0,88,29.34,1.5,SSW,11.5,36.8,0.12,Rain-Thunderstorm,Heavy Thunderstorms and Rain,210,2013-10-11 21:00:00
4:12 PM,53.6,48.2,82,29.33,3.0,South,12.7,-,0.20,Rain-Thunderstorm,Thunderstorms and Rain,180,2013-10-11 21:12:00
4:48 PM,55.4,51.8,88,29.32,10.0,East,4.6,-,0.21,,Mostly Cloudy,100,2013-10-11 21:48:00
4:56 PM,55.9,52.0,87,29.31,10.0,ESE,4.6,-,0.21,,Mostly Cloudy,110,2013-10-11 21:56:00
5:36 PM,53.6,51.8,94,29.30,2.0,WNW,5.8,-,0.07,Rain,Rain,300,2013-10-11 22:36:00
5:48 PM,51.8,51.8,100,29.29,6.0,North,4.6,-,0.08,Rain,Light Rain,350,2013-10-11 22:48:00
5:56 PM,53.1,51.1,93,29.28,10.0,North,8.1,-,0.08,,Overcast,360,2013-10-11 22:56:00
6:44 PM,53.6,51.8,94,29.27,2.0,North,8.1,-,0.07,Rain,Heavy Rain,350,2013-10-11 23:44:00
6:54 PM,53.6,51.8,94,29.27,5.0,NNW,3.5,-,0.10,Rain,Rain,330,2013-10-11 23:54:00
6:56 PM,53.1,52.0,96,29.27,6.0,North,3.5,-,0.10,Rain,Rain,350,2013-10-11 23:56:00
7:06 PM,53.6,51.8,94,29.27,8.0,Variable,3.5,-,0.01,Rain,Light Rain,0,2013-10-12 00:06:00
7:14 PM,53.6,51.8,94,29.26,10.0,North,3.5,-,0.01,Rain,Light Rain,360,2013-10-12 00:14:00
7:33 PM,53.6,51.8,94,29.28,10.0,WNW,8.1,-,0.01,,Overcast,290,2013-10-12 00:33:00
7:52 PM,51.8,51.8,100,29.29,10.0,West,6.9,-,0.01,,Mostly Cloudy,270,2013-10-12 00:52:00
7:56 PM,52.0,50.0,93,29.29,10.0,West,6.9,-,0.01,,Mostly Cloudy,260,2013-10-12 00:56:00
8:05 PM,51.8,50.0,94,29.30,8.0,West,11.5,18.4,0.00,Rain,Light Rain,260,2013-10-12 01:05:00
8:56 PM,52.0,50.0,93,29.32,10.0,SW,10.4,-,0.01,,Mostly Cloudy,220,2013-10-12 01:56:00
9:08 PM,51.8,50.0,94,29.32,10.0,SW,11.5,-,N/A,,Overcast,220,2013-10-12 02:08:00
9:56 PM,52.0,48.9,89,29.34,10.0,WSW,15.0,-,N/A,,Overcast,250,2013-10-12 02:56:00
10:56 PM,52.0,48.0,86,29.36,10.0,West,24.2,34.5,N/A,,Overcast,260,2013-10-12 03:56:00
11:56 PM,51.1,46.0,83,29.39,10.0,West,23.0,34.5,N/A,,Overcast,280,2013-10-12 04:56:00